| time (UTC) | temp C | wind direction | speed KPH | gust KPH | rain 1hr cm | rain 24hr cm | rain mn cm | humidity % | barometer mb |
| 20260504211902 | 21 | 250 | 4.8 | 4.8 | 0.00 | 0.00 | 0.00 | 30 | 984.0 |
| 20260504211402 | 20 | 159 | 1.6 | 4.8 | 0.00 | 0.00 | 0.00 | 29 | 984.0 |
| 20260504210905 | 20 | 174 | 3.2 | 6.4 | 0.00 | 0.00 | 0.00 | 29 | 984.0 |
| 20260504210403 | 20 | 159 | 1.6 | 3.2 | 0.00 | 0.00 | 0.00 | 29 | 984.0 |
| 20260504205903 | 20 | 156 | 4.8 | 6.4 | 0.00 | 0.00 | 0.00 | 30 | 984.0 |
| 20260504205403 | 20 | 168 | 3.2 | 4.8 | 0.00 | 0.00 | 0.00 | 28 | 984.0 |
| 20260504204903 | 20 | 177 | 6.4 | 6.4 | 0.00 | 0.00 | 0.00 | 28 | 984.0 |
| 20260504204402 | 20 | 131 | 1.6 | 3.2 | 0.00 | 0.00 | 0.00 | 29 | 984.0 |
| 20260504203902 | 20 | 143 | 0.0 | 6.4 | 0.00 | 0.00 | 0.00 | 30 | 984.0 |
| 20260504203403 | 20 | 163 | 4.8 | 4.8 | 0.00 | 0.00 | 0.00 | 29 | 984.0 |
| 20260504202903 | 20 | 170 | 1.6 | 11.3 | 0.00 | 0.00 | 0.00 | 30 | 984.0 |
| 20260504202403 | 20 | 184 | 6.4 | 12.9 | 0.00 | 0.00 | 0.00 | 28 | 984.0 |
| 20260504201904 | 20 | 145 | 6.4 | 14.5 | 0.00 | 0.00 | 0.00 | 28 | 984.0 |
| 20260504201403 | 20 | 190 | 4.8 | 9.7 | 0.00 | 0.00 | 0.00 | 28 | 984.0 |
| 20260504200903 | 20 | 201 | 3.2 | 3.2 | 0.00 | 0.00 | 0.00 | 30 | 984.0 |
| 20260504200402 | 21 | 181 | 6.4 | 17.7 | 0.00 | 0.00 | 0.00 | 27 | 984.0 |
| 20260504195902 | 21 | 171 | 4.8 | 6.4 | 0.00 | 0.00 | 0.00 | 27 | 984.0 |
| 20260504195403 | 21 | 150 | 1.6 | 14.5 | 0.00 | 0.00 | 0.00 | 27 | 984.0 |
| 20260504194902 | 21 | 132 | 4.8 | 12.9 | 0.00 | 0.00 | 0.00 | 28 | 984.0 |
| 20260504194404 | 21 | 81 | 1.6 | 11.3 | 0.00 | 0.00 | 0.00 | 27 | 984.0 |
| 20260504193903 | 21 | 199 | 6.4 | 14.5 | 0.00 | 0.00 | 0.00 | 27 | 984.0 |
| 20260504193403 | 20 | 146 | 3.2 | 14.5 | 0.00 | 0.00 | 0.00 | 29 | 984.0 |
| 20260504192903 | 20 | 151 | 3.2 | 3.2 | 0.00 | 0.00 | 0.00 | 29 | 984.0 |
| 20260504192402 | 20 | 178 | 6.4 | 24.1 | 0.00 | 0.00 | 0.00 | 28 | 984.0 |
| 20260504191905 | 20 | 253 | 6.4 | 11.3 | 0.00 | 0.00 | 0.00 | 27 | 984.0 |
| 20260504191402 | 20 | 177 | 6.4 | 9.7 | 0.00 | 0.00 | 0.00 | 28 | 984.0 |
| 20260504190904 | 21 | 149 | 3.2 | 9.7 | 0.00 | 0.00 | 0.00 | 28 | 984.0 |
| 20260504190404 | 21 | 220 | 6.4 | 11.3 | 0.00 | 0.00 | 0.00 | 28 | 984.0 |
| 20260504185903 | 20 | 148 | 8.0 | 16.1 | 0.00 | 0.00 | 0.00 | 28 | 984.0 |
| 20260504185402 | 20 | 153 | 8.0 | 16.1 | 0.00 | 0.00 | 0.00 | 27 | 984.0 |
| 20260504184903 | 21 | 163 | 8.0 | 12.9 | 0.00 | 0.00 | 0.00 | 28 | 984.0 |
| 20260504184404 | 20 | 99 | 1.6 | 6.4 | 0.00 | 0.00 | 0.00 | 28 | 984.0 |
| 20260504183903 | 20 | 178 | 8.0 | 12.9 | 0.00 | 0.00 | 0.00 | 27 | 984.0 |
| 20260504183403 | 20 | 155 | 9.7 | 11.3 | 0.00 | 0.00 | 0.00 | 27 | 984.0 |
| 20260504182903 | 21 | 134 | 0.0 | 11.3 | 0.00 | 0.00 | 0.00 | 26 | 984.0 |
| 20260504182402 | 21 | 155 | 1.6 | 4.8 | 0.00 | 0.00 | 0.00 | 27 | 984.0 |
| 20260504181904 | 20 | 158 | 1.6 | 11.3 | 0.00 | 0.00 | 0.00 | 26 | 984.0 |
| 20260504181403 | 20 | 173 | 6.4 | 16.1 | 0.00 | 0.00 | 0.00 | 26 | 984.0 |
| 20260504180905 | 21 | 163 | 3.2 | 12.9 | 0.00 | 0.00 | 0.00 | 26 | 984.0 |
| 20260504180404 | 20 | 135 | 3.2 | 9.7 | 0.00 | 0.00 | 0.00 | 26 | 984.0 |
| 20260504175903 | 20 | 201 | 4.8 | 16.1 | 0.00 | 0.00 | 0.00 | 26 | 984.0 |
| 20260504175405 | 20 | 145 | 8.0 | 12.9 | 0.00 | 0.00 | 0.00 | 25 | 984.0 |
| 20260504174904 | 20 | 169 | 11.3 | 20.9 | 0.00 | 0.00 | 0.00 | 26 | 985.0 |
| 20260504174407 | 20 | 157 | 6.4 | 11.3 | 0.00 | 0.00 | 0.00 | 25 | 985.0 |
| 20260504173903 | 20 | 177 | 3.2 | 9.7 | 0.00 | 0.00 | 0.00 | 27 | 985.0 |
| 20260504173403 | 20 | 168 | 9.7 | 16.1 | 0.00 | 0.00 | 0.00 | 26 | 985.0 |
| 20260504172903 | 20 | 196 | 4.8 | 16.1 | 0.00 | 0.00 | 0.00 | 27 | 985.0 |
| 20260504172405 | 20 | 137 | 6.4 | 9.7 | 0.00 | 0.00 | 0.00 | 27 | 985.0 |
| 20260504171905 | 20 | 164 | 8.0 | 11.3 | 0.00 | 0.00 | 0.00 | 27 | 985.0 |
| 20260504171403 | 19 | 172 | 8.0 | 11.3 | 0.00 | 0.00 | 0.00 | 28 | 985.0 |
| 20260504170905 | 19 | 225 | 6.4 | 17.7 | 0.00 | 0.00 | 0.00 | 27 | 985.0 |
| 20260504170403 | 19 | 138 | 4.8 | 11.3 | 0.00 | 0.00 | 0.00 | 27 | 985.0 |
| 20260504160403 | 18 | 184 | 8.0 | 11.3 | 0.00 | 0.00 | 0.00 | 29 | 986.0 |
| 20260504150903 | 17 | 155 | 11.3 | 16.1 | 0.00 | 0.00 | 0.00 | 30 | 986.0 |
| 20260504150403 | 17 | 154 | 3.2 | 3.2 | 0.00 | 0.00 | 0.00 | 33 | 986.0 |
| 20260504140904 | 16 | 238 | 6.4 | 6.4 | 0.00 | 0.00 | 0.00 | 34 | 987.0 |
| 20260504140405 | 15 | 165 | 0.0 | 6.4 | 0.00 | 0.00 | 0.00 | 36 | 987.0 |
| 20260504130407 | 14 | 149 | 3.2 | 6.4 | 0.00 | 0.00 | 0.00 | 38 | 987.0 |
| 20260504110403 | 7 | 150 | 3.2 | 3.2 | 0.00 | 0.00 | 0.00 | 58 | 987.0 |
| 20260504100405 | 2 | 195 | 0.0 | 0.0 | 0.00 | 0.00 | 0.00 | 81 | 987.0 |
| 20260504081902 | 4 | 195 | 1.6 | 1.6 | 0.00 | 0.00 | 0.00 | 76 | 987.0 |
| 20260504081404 | 4 | 195 | 0.0 | 1.6 | 0.00 | 0.00 | 0.00 | 75 | 986.0 |
| 20260504080904 | 4 | 195 | 0.0 | 1.6 | 0.00 | 0.00 | 0.00 | 73 | 987.0 |
| 20260504080402 | 4 | 195 | 0.0 | 1.6 | 0.00 | 0.00 | 0.00 | 72 | 987.0 |
| 20260504070404 | 5 | 195 | 0.0 | 0.0 | 0.00 | 0.00 | 0.00 | 72 | 986.0 |
| 20260504050404 | 3 | 195 | 1.6 | 3.2 | 0.00 | 0.00 | 0.00 | 72 | 987.0 |
| 20260504045903 | 3 | 195 | 1.6 | 1.6 | 0.00 | 0.00 | 0.00 | 73 | 987.0 |
| 20260504045402 | 3 | 195 | 1.6 | 1.6 | 0.00 | 0.00 | 0.00 | 72 | 987.0 |
| 20260504044902 | 3 | 195 | 3.2 | 3.2 | 0.00 | 0.00 | 0.00 | 72 | 987.0 |
| 20260504044404 | 3 | 195 | 1.6 | 3.2 | 0.00 | 0.00 | 0.00 | 73 | 987.0 |
| 20260504043902 | 3 | 195 | 1.6 | 3.2 | 0.00 | 0.00 | 0.00 | 73 | 987.0 |
| 20260504043402 | 3 | 195 | 3.2 | 3.2 | 0.00 | 0.00 | 0.00 | 74 | 987.0 |
| 20260504042903 | 3 | 194 | 1.6 | 1.6 | 0.00 | 0.00 | 0.00 | 75 | 987.0 |
| 20260504042402 | 3 | 194 | 1.6 | 3.2 | 0.00 | 0.00 | 0.00 | 71 | 987.0 |
| 20260504041902 | 3 | 194 | 3.2 | 3.2 | 0.00 | 0.00 | 0.00 | 75 | 987.0 |
| 20260504041403 | 3 | 194 | 3.2 | 3.2 | 0.00 | 0.00 | 0.00 | 74 | 987.0 |
| 20260504040903 | 3 | 193 | 0.0 | 3.2 | 0.00 | 0.00 | 0.00 | 72 | 987.0 |
| 20260504040402 | 3 | 193 | 1.6 | 3.2 | 0.00 | 0.00 | 0.00 | 70 | 987.0 |
| 20260504035902 | 3 | 193 | 1.6 | 1.6 | 0.00 | 0.00 | 0.00 | 70 | 987.0 |
| 20260504035402 | 3 | 193 | 0.0 | 3.2 | 0.00 | 0.00 | 0.00 | 69 | 987.0 |
| 20260504034904 | 3 | 193 | 1.6 | 1.6 | 0.00 | 0.00 | 0.00 | 69 | 987.0 |
| 20260504034402 | 3 | 193 | 1.6 | 1.6 | 0.00 | 0.00 | 0.00 | 68 | 987.0 |
| 20260504033902 | 3 | 193 | 1.6 | 1.6 | 0.00 | 0.00 | 0.00 | 70 | 987.0 |
| 20260504033402 | 3 | 193 | 1.6 | 1.6 | 0.00 | 0.00 | 0.00 | 73 | 987.0 |
| 20260504032903 | 3 | 194 | 3.2 | 3.2 | 0.00 | 0.00 | 0.00 | 73 | 987.0 |
| 20260504032403 | 3 | 193 | 3.2 | 3.2 | 0.00 | 0.00 | 0.00 | 73 | 987.0 |
| 20260504031902 | 3 | 193 | 3.2 | 3.2 | 0.00 | 0.00 | 0.00 | 73 | 987.0 |
| 20260504031402 | 3 | 192 | 4.8 | 3.2 | 0.00 | 0.00 | 0.00 | 73 | 987.0 |
| 20260504030902 | 3 | 184 | 3.2 | 3.2 | 0.00 | 0.00 | 0.00 | 72 | 986.0 |
| 20260504030402 | 3 | 183 | 1.6 | 3.2 | 0.00 | 0.00 | 0.00 | 71 | 987.0 |
| 20260504025902 | 3 | 183 | 3.2 | 3.2 | 0.00 | 0.00 | 0.00 | 70 | 987.0 |
| 20260504025402 | 3 | 182 | 1.6 | 3.2 | 0.00 | 0.00 | 0.00 | 71 | 987.0 |
| 20260504024903 | 3 | 179 | 3.2 | 3.2 | 0.00 | 0.00 | 0.00 | 72 | 986.0 |
| 20260504024402 | 3 | 176 | 1.6 | 3.2 | 0.00 | 0.00 | 0.00 | 72 | 986.0 |
| 20260504023903 | 3 | 174 | 3.2 | 3.2 | 0.00 | 0.00 | 0.00 | 71 | 987.0 |
| 20260504023402 | 3 | 168 | 0.0 | 1.6 | 0.00 | 0.00 | 0.00 | 71 | 986.0 |
| 20260504022904 | 3 | 166 | 3.2 | 3.2 | 0.00 | 0.00 | 0.00 | 71 | 986.0 |
| 20260504022402 | 3 | 163 | 3.2 | 3.2 | 0.00 | 0.00 | 0.00 | 70 | 986.0 |
| 20260504021904 | 3 | 157 | 3.2 | 3.2 | 0.00 | 0.00 | 0.00 | 69 | 986.0 |
| 20260504021402 | 3 | 154 | 1.6 | 3.2 | 0.00 | 0.00 | 0.00 | 68 | 986.0 |
| 20260504020903 | 3 | 153 | 0.0 | 3.2 | 0.00 | 0.00 | 0.00 | 66 | 986.0 |
| 20260504020402 | 3 | 153 | 1.6 | 1.6 | 0.00 | 0.00 | 0.00 | 66 | 986.0 |
| 20260504015902 | 3 | 152 | 0.0 | 1.6 | 0.00 | 0.00 | 0.00 | 65 | 986.0 |
| 20260504015402 | 3 | 152 | 1.6 | 1.6 | 0.00 | 0.00 | 0.00 | 65 | 986.0 |
| 20260504014902 | 3 | 152 | 0.0 | 1.6 | 0.00 | 0.00 | 0.00 | 66 | 986.0 |
| 20260504014402 | 3 | 152 | 1.6 | 1.6 | 0.00 | 0.00 | 0.00 | 66 | 986.0 |
| 20260504013903 | 3 | 152 | 1.6 | 1.6 | 0.00 | 0.00 | 0.00 | 65 | 986.0 |
| 20260504013403 | 3 | 152 | 1.6 | 1.6 | 0.00 | 0.00 | 0.00 | 64 | 986.0 |
| 20260504012902 | 3 | 152 | 0.0 | 1.6 | 0.00 | 0.00 | 0.00 | 62 | 986.0 |
| 20260504012403 | 4 | 152 | 1.6 | 1.6 | 0.00 | 0.00 | 0.00 | 60 | 986.0 |
| 20260504011902 | 4 | 152 | 0.0 | 1.6 | 0.00 | 0.00 | 0.00 | 60 | 986.0 |
| 20260504011403 | 4 | 152 | 0.0 | 1.6 | 0.00 | 0.00 | 0.00 | 58 | 986.0 |
| 20260504010914 | 4 | 152 | 0.0 | 1.6 | 0.00 | 0.00 | 0.00 | 62 | 986.0 |
| 20260504010403 | 5 | 152 | 1.6 | 1.6 | 0.00 | 0.00 | 0.00 | 62 | 986.0 |
| 20260504005903 | 5 | 152 | 1.6 | 1.6 | 0.00 | 0.00 | 0.00 | 61 | 986.0 |
| 20260504005402 | 5 | 152 | 0.0 | 1.6 | 0.00 | 0.00 | 0.00 | 62 | 986.0 |
| 20260504004903 | 5 | 152 | 1.6 | 1.6 | 0.00 | 0.00 | 0.00 | 63 | 986.0 |
| 20260504004402 | 5 | 151 | 1.6 | 1.6 | 0.00 | 0.00 | 0.00 | 63 | 985.0 |
| 20260504003902 | 5 | 151 | 1.6 | 1.6 | 0.00 | 0.00 | 0.00 | 62 | 986.0 |
| 20260504003402 | 5 | 150 | 0.0 | 3.2 | 0.00 | 0.00 | 0.00 | 61 | 985.0 |
| 20260504002902 | 5 | 148 | 1.6 | 1.6 | 0.00 | 0.00 | 0.00 | 59 | 985.0 |
| 20260504002402 | 6 | 147 | 3.2 | 3.2 | 0.00 | 0.00 | 0.00 | 59 | 985.0 |
| 20260504001902 | 6 | 135 | 1.6 | 3.2 | 0.00 | 0.00 | 0.00 | 57 | 985.0 |
| 20260504001402 | 6 | 127 | 1.6 | 3.2 | 0.00 | 0.00 | 0.00 | 57 | 985.0 |
| 20260504000902 | 6 | 120 | 1.6 | 3.2 | 0.00 | 0.00 | 0.00 | 56 | 985.0 |
| 20260504000403 | 6 | 118 | 1.6 | 1.6 | 0.00 | 0.00 | 0.00 | 51 | 985.0 |
| 20260503235902 | 7 | 117 | 1.6 | 1.6 | 0.00 | 0.00 | 0.00 | 50 | 985.0 |
| 20260503235402 | 7 | 117 | 0.0 | 1.6 | 0.00 | 0.00 | 0.00 | 50 | 985.0 |
| 20260503234903 | 7 | 116 | 1.6 | 1.6 | 0.00 | 0.00 | 0.00 | 47 | 985.0 |
| 20260503234402 | 7 | 116 | 1.6 | 1.6 | 0.00 | 0.00 | 0.00 | 47 | 985.0 |
| 20260503233902 | 8 | 116 | 1.6 | 1.6 | 0.00 | 0.00 | 0.00 | 44 | 985.0 |
| 20260503233403 | 8 | 116 | 1.6 | 1.6 | 0.00 | 0.00 | 0.00 | 43 | 985.0 |
| 20260503232902 | 8 | 115 | 0.0 | 0.0 | 0.00 | 0.00 | 0.00 | 39 | 985.0 |
| 20260503232403 | 9 | 115 | 0.0 | 0.0 | 0.00 | 0.00 | 0.00 | 40 | 985.0 |
| 20260503231902 | 9 | 108 | 0.0 | 1.6 | 0.00 | 0.00 | 0.00 | 37 | 985.0 |
| 20260503231402 | 9 | 110 | 0.0 | 0.0 | 0.00 | 0.00 | 0.00 | 40 | 985.0 |
| 20260503230902 | 9 | 112 | 0.0 | 3.2 | 0.00 | 0.00 | 0.00 | 38 | 985.0 |
| 20260503230402 | 10 | 65 | 1.6 | 1.6 | 0.00 | 0.00 | 0.00 | 38 | 985.0 |
| 20260503225902 | 10 | 353 | 4.8 | 9.7 | 0.00 | 0.00 | 0.00 | 36 | 985.0 |
| 20260503225402 | 10 | 112 | 0.0 | 1.6 | 0.00 | 0.00 | 0.00 | 37 | 985.0 |
| 20260503224902 | 10 | 123 | 1.6 | 3.2 | 0.00 | 0.00 | 0.00 | 35 | 985.0 |
| 20260503224402 | 10 | 163 | 4.8 | 6.4 | 0.00 | 0.00 | 0.00 | 34 | 985.0 |
| 20260503223903 | 10 | 110 | 1.6 | 3.2 | 0.00 | 0.00 | 0.00 | 34 | 984.0 |
| 20260503223402 | 10 | 150 | 0.0 | 3.2 | 0.00 | 0.00 | 0.00 | 35 | 984.0 |
| 20260503222903 | 10 | 124 | 3.2 | 6.4 | 0.00 | 0.00 | 0.00 | 35 | 985.0 |
| 20260503222403 | 10 | 142 | 3.2 | 3.2 | 0.00 | 0.00 | 0.00 | 33 | 985.0 |
| 20260503221902 | 10 | 164 | 8.0 | 11.3 | 0.00 | 0.00 | 0.00 | 33 | 984.0 |
| 20260503221402 | 10 | 133 | 3.2 | 11.3 | 0.00 | 0.00 | 0.00 | 35 | 984.0 |
| 20260503220903 | 10 | 157 | 3.2 | 3.2 | 0.00 | 0.00 | 0.00 | 34 | 984.0 |
| 20260503220403 | 10 | 105 | 0.0 | 3.2 | 0.00 | 0.00 | 0.00 | 34 | 984.0 |
| 20260503215903 | 10 | 101 | 6.4 | 16.1 | 0.00 | 0.00 | 0.00 | 32 | 984.0 |
| 20260503215410 | 10 | 144 | 3.2 | 6.4 | 0.00 | 0.00 | 0.00 | 32 | 984.0 |
| 20260503214902 | 10 | 76 | 1.6 | 3.2 | 0.00 | 0.00 | 0.00 | 33 | 984.0 |
| 20260503214402 | 10 | 51 | 3.2 | 4.8 | 0.00 | 0.00 | 0.00 | 34 | 984.0 |
| 20260503213903 | 10 | 47 | 4.8 | 4.8 | 0.00 | 0.00 | 0.00 | 33 | 984.0 |
| 20260503213402 | 10 | 85 | 1.6 | 6.4 | 0.00 | 0.00 | 0.00 | 32 | 984.0 |
| 20260503212902 | 10 | 77 | 3.2 | 3.2 | 0.00 | 0.00 | 0.00 | 33 | 984.0 |
| 20260503212402 | 10 | 42 | 3.2 | 4.8 | 0.00 | 0.00 | 0.00 | 33 | 984.0 |